This is the latest recevied weather packets stored in our database for station/object KF7PIZ. If no packets are shown the sender has not sent any weather packets the latest 10 day(s).
| Time | Temp. | Humidity | Pressure | Rain* | Wind** | Luminosity | Snow |
|---|---|---|---|---|---|---|---|
| 1776978366 | 18.33° C | 30% | 1018.2 hPa | 0 mm | - | 432 W/m² | - |
| 1776978064 | 17.78° C | 28% | 1018.2 hPa | 0 mm | - | 676 W/m² | - |
| 1776977761 | 17.22° C | 32% | 1018.5 hPa | 0 mm | - | 659 W/m² | - |
| 1776977456 | 18.89° C | 30% | 1018.6 hPa | 0 mm | - | 519 W/m² | - |
| 1776977153 | 19.44° C | 31% | 1018.8 hPa | 0 mm | - | 552 W/m² | - |
| 1776976849 | 18.89° C | 30% | 1019 hPa | 0 mm | - | 694 W/m² | - |
| 1776976544 | 18.33° C | 31% | 1018.9 hPa | 0 mm | - | 291 W/m² | - |
| 1776976239 | 19.44° C | 31% | 1018.8 hPa | 0 mm | - | 696 W/m² | - |
| 1776975936 | 18.33° C | 33% | 1018.8 hPa | 0 mm | - | 717 W/m² | - |
| 1776975633 | 17.22° C | 31% | 1018.8 hPa | 0 mm | - | 725 W/m² | - |
| 1776975330 | 18.33° C | 32% | 1019 hPa | 0 mm | - | 698 W/m² | - |
| 1776975026 | 16.11° C | 35% | 1018.9 hPa | 0 mm | - | 642 W/m² | - |
| 1776974724 | 17.22° C | 36% | 1019.1 hPa | 0 mm | - | 638 W/m² | - |
| 1776974421 | 17.22° C | 34% | 1018.8 hPa | 0 mm | - | 684 W/m² | - |
| 1776974118 | 17.22° C | 35% | 1019.3 hPa | 0 mm | - | 740 W/m² | - |
| 1776973815 | 16.67° C | 32% | 1019.3 hPa | 0 mm | - | 783 W/m² | - |
| 1776973513 | 16.67° C | 36% | 1019.3 hPa | 0 mm | - | 792 W/m² | - |
| 1776973210 | 17.78° C | 34% | 1019.6 hPa | 0 mm | - | 773 W/m² | - |
| 1776972907 | 16.67° C | 35% | 1019.6 hPa | 0 mm | - | 728 W/m² | - |
| 1776972603 | 15.56° C | 36% | 1019.5 hPa | 0 mm | - | 686 W/m² | - |
| 1776972301 | 16.67° C | 36% | 1019.8 hPa | 0 mm | - | 648 W/m² | - |
| 1776971996 | 18.33° C | 31% | 1019.7 hPa | 0 mm | - | 619 W/m² | - |
| 1776971692 | 17.78° C | 33% | 1019.8 hPa | 0 mm | - | 581 W/m² | - |
| 1776971390 | 16.67° C | 36% | 1020.1 hPa | 0 mm | - | 633 W/m² | - |
| 1776971087 | 16.67° C | 35% | 1019.9 hPa | 0 mm | - | 642 W/m² | - |
* Rain latest hour (hover to see other rain measurements)
** Current wind speed in m/s (hover to see current wind gust speed)